Location: Ellerstadt
(49.4644°N, 8.2615°E)
Time: 03:30:08
(UTC+00:00)

Transit 2A - Visible Passes

Search period start: 13 June 2021 00:00
Search period end: 23 June 2021 00:00
Orbit: 601 x 957 km, 66.7° (Epoch: 12 June)

Date Brightness Start Highest point End Pass type
(mag) Time Alt. Az. Time Alt. Az. Time Alt. Az.
13 Jun 7.0 01:15:31 10° NNW 01:20:07 47° NE 01:25:09 10° ESE visible
13 Jun 8.9 22:59:23 10° N 23:01:19 12° NNE 23:03:18 10° NE visible
14 Jun 7.5 00:41:26 10° NNW 00:45:49 36° NE 00:50:34 10° ESE visible
14 Jun 6.2 02:24:26 10° NW 02:29:04 45° WSW 02:34:10 10° S visible
14 Jun 9.2 20:40:48 10° NNW 20:41:19 10° NNW 20:41:49 10° N visible
14 Jun 9.0 22:25:35 10° N 22:26:43 11° NNE 22:27:53 10° NNE visible
15 Jun 7.9 00:07:22 10° NNW 00:11:27 28° NE 00:15:50 10° E visible
15 Jun 5.9 01:50:09 10° NW 01:54:57 64° WSW 02:00:14 10° SSE visible
15 Jun 8.2 23:33:21 10° NNW 23:37:03 22° NE 23:41:01 10° E visible
16 Jun 5.9 01:15:55 10° NW 01:20:46 88° SW 01:26:07 10° SSE visible
16 Jun 8.4 22:59:20 10° NNW 23:02:36 18° NNE 23:06:03 10° ENE visible
17 Jun 6.2 00:41:45 10° NNW 00:46:34 68° NE 00:51:52 10° SE visible
17 Jun 7.2 02:25:35 10° WNW 02:29:23 22° WSW 02:33:26 10° SSW visible
17 Jun 8.6 22:25:21 10° N 22:28:06 15° NNE 22:30:58 10° ENE visible
18 Jun 6.7 00:07:38 10° NNW 00:12:19 50° NE 00:17:27 10° ESE visible
18 Jun 6.8 01:51:01 10° NW 01:55:20 31° WSW 02:00:01 10° S visible
18 Jun 8.6 21:51:24 10° N 21:53:33 13° NNE 21:55:48 10° NE visible
18 Jun 7.2 23:33:32 10° NNW 23:38:00 38° NE 23:42:54 10° ESE visible
19 Jun 6.3 01:16:36 10° NW 01:21:15 43° WSW 01:25:58 12° S visible
19 Jun 8.7 21:17:31 10° N 21:18:58 11° NNE 21:20:28 10° NE visible
19 Jun 7.6 22:59:28 10° NNW 23:03:40 29° NE 23:08:12 10° E visible
20 Jun 6.0 00:42:17 10° NW 00:47:07 60° WSW 00:51:26 15° SSE visible
20 Jun 8.8 20:43:56 10° N 20:44:22 10° N 20:44:48 10° NNE visible
20 Jun 7.9 22:25:26 10° NNW 22:29:16 23° NE 22:33:24 10° E visible
21 Jun 5.8 00:08:03 10° NW 00:12:57 83° SW 00:17:09 17° SSE visible
21 Jun 7.7 01:52:47 10° WNW 01:55:31 15° WSW 01:57:35 12° SW visible
21 Jun 8.2 21:51:24 10° NNW 21:54:50 19° NNE 21:58:28 10° ENE visible
21 Jun 6.1 23:33:53 10° NNW 23:38:45 73° NE 23:43:03 16° SE visible
22 Jun 7.3 01:17:49 10° WNW 01:21:32 21° WSW 01:23:28 17° SW visible
22 Jun 8.4 21:17:24 10° NNW 21:20:21 16° NNE 21:23:25 10° ENE visible
22 Jun 6.5 22:59:44 10° NNW 23:04:31 53° NE 23:09:04 14° SE visible
